This is the latest recevied weather packets stored in our database for station/object E27EKO-13. If no packets are shown the sender has not sent any weather packets the latest 10 day(s).
| Time | Temp. | Humidity | Pressure | Rain* | Wind** | Luminosity | Snow |
|---|---|---|---|---|---|---|---|
| 1787656951 | 32.78° C | 71% | 1006 hPa | - | - | 0 W/m² | - |
| 1787656756 | 32.78° C | 71% | 1006 hPa | - | - | 0 W/m² | - |
| 1787656434 | 33.33° C | 71% | 1006 hPa | - | - | 0 W/m² | - |
| 1787656112 | 33.33° C | 70% | 1006 hPa | - | - | 0 W/m² | - |
| 1787655789 | 33.33° C | 70% | 1006 hPa | - | - | 0 W/m² | - |
| 1787655474 | 33.33° C | 68% | 1006 hPa | - | - | 0 W/m² | - |
| 1787655146 | 32.78° C | 69% | 1006 hPa | - | - | 0 W/m² | - |
| 1787654824 | 33.89° C | 64% | 1006 hPa | - | - | 0 W/m² | - |
| 1787654501 | 33.89° C | 59% | 1006 hPa | - | - | 0 W/m² | - |
| 1787654179 | 33.89° C | 58% | 1006 hPa | - | - | 0 W/m² | - |
| 1787653857 | 34.44° C | 58% | 1005 hPa | - | - | 0 W/m² | - |
| 1787653529 | 34.44° C | 58% | 1005 hPa | - | - | 0 W/m² | - |
| 1787653207 | 34.44° C | 58% | 1005 hPa | - | - | 0 W/m² | - |
| 1787652885 | 35° C | 56% | 1005 hPa | - | - | 0 W/m² | - |
| 1787652563 | 35.56° C | 55% | 1005 hPa | - | - | 0 W/m² | - |
| 1787652241 | 35.56° C | 55% | 1005 hPa | - | - | 0 W/m² | - |
| 1787651919 | 35° C | 55% | 1005 hPa | - | - | 0 W/m² | - |
| 1787651597 | 35.56° C | 55% | 1005 hPa | - | - | 0 W/m² | - |
| 1787651275 | 35.56° C | 54% | 1005 hPa | - | - | 0 W/m² | - |
| 1787650953 | 36.11° C | 53% | 1005 hPa | - | - | 0 W/m² | - |
| 1787650631 | 36.67° C | 53% | 1005 hPa | - | - | 0 W/m² | - |
| 1787650309 | 37.22° C | 52% | 1005 hPa | - | - | 0 W/m² | - |
| 1787649987 | 36.11° C | 52% | 1005 hPa | - | - | 0 W/m² | - |
| 1787649665 | 36.11° C | 54% | 1005 hPa | - | - | 0 W/m² | - |
| 1787649343 | 35.56° C | 54% | 1005 hPa | - | - | 0 W/m² | - |
* Rain since midnight (hover to see other rain measurements)
** Current wind speed in m/s (hover to see current wind gust speed)